Hauptseite
METAR-TAF:

METAR-TAF

Flughäfen :

Frontone, Italien

Breite: 43-31N, Länge: 012-44E, Höhe: 570 m

Beobachtung

Neuester Wetterbericht von vor 1 Stunde und 13 Minuten, um 00:55 UTC
Wind 7 kt aus West
Temperatur 19°C
Luftfeuchtigkeit 56%
Luftdruck 1011 hPa
Sichtweite 10 km oder mehr
Leicht bewölkt in der Höhe von 3000 ft

METAR: LIVF 170055Z 27007KT 9999 FEW030 19/10 Q1011 RMK BKN SCT080 MON LIB VAL NIL VIS MIN 9999

Zeit: 04:08 (02:08 UTC)


TAF: fehlend

Wetterbeobachtungen und Prognosen von mehr als 4000 Flughäfen (METAR und TAF Bericht).

Die verfügbaren Stationen werden durch gelbe und rote Markierungen auf der Karte dargestellt.

Führen Sie die Maus auf sie, um den Namen der Station zu sehen.

Darauf klicken, um die Beobachtung von Wetterbeobachtungen und Prognosen zu sehen.

Um die Karte zu ändern : klicken Sie auf den grünen Tasten mit einem schwarzen Kreuz Zum Vergrößern, auf den grünen Button mit einem Gedankenstrich zu verkleinern, oder auf die grünen Pfeile für benachbarte Karten.


METAR-TAF: